{"data":{"norad_id":61012,"intl_designator":"2024-159B","name":"GEESAT-3 02","alt_names":[],"object_type":"PAYLOAD","status":"ACTIVE","operator":null,"country":"PRC","launch_date":"2024-09-05","launch_site_code":"TAISC","launch_vehicle":null,"mission":null,"orbit_class":"UNKNOWN","rcs_meters":null,"size_class":null,"mass_kg":null,"dimensions":null,"purposes":[],"wikipedia_slug":null,"has_3d_model":false,"image_url":null,"decayed_at":null,"tle_current":{"epoch":"2026-09-22T19:32:27.414816Z","epoch_age_seconds":91790,"freshness":"FRESH","line1":"1 61012U 24159B   26265.81420619  .00001002  00000+0  14446-3 0  9997","line2":"2 61012  49.9960 350.3377 0018291  72.2275 288.0658 14.84523518111295","mean_motion":14.84523518,"eccentricity":0.0018291,"inclination_deg":49.996,"raan_deg":350.3377,"arg_perigee_deg":72.2275,"mean_anomaly_deg":288.0658,"bstar":0.00014446,"rev_number":11129,"period_min":97.000820973184,"perigee_km":602.29055944173,"apogee_km":627.87315266094,"semimajor_km":6993.2188560513,"source":"CELESTRAK","updated_at":"2026-09-23T09:00:20.796066Z"}}}